[[{"header":{"parameterUnit":"m.s-1","parameterCategory":1,"la1":30.2992,"la2":30.254,"lo1":-89.0895,"lo2":-89.0443,"dy":0.0025,"dx":0.0025,"nx":19,"ny":19,"refTime":"2026-05-14T03:00:00:Z","depth":0,"parameterNumber":2,"parameterNumberName":"U-component_of_WINDS"},"data":[0,0,0,-2.5459,-2.5461,-2.5562,-2.5562,-2.5687,-2.5688,0,0,0,0,0,0,0,0,0,0,0,-2.5427,-2.5428,-2.5459,-2.5461,-2.5562,-2.5562,-2.5687,-2.5688,0,0,0,0,0,0,0,0,0,0,0,-2.5426,-2.5427,-2.5428,-2.5461,-2.5562,-2.5562,-2.5687,-2.5612,0,0,0,0,0,0,0,0,0,0,-2.5515,-2.5483,-2.5427,-2.5428,-2.5462,-2.5562,-2.5562,-2.5609,-2.5617,-2.564,0,-2.566,0,-2.5676,-2.5697,-2.5697,0,0,0,-2.5463,-2.5476,-2.5506,-2.5429,-2.5463,-2.5562,-2.5517,-2.5613,-2.5622,-2.5651,-2.5662,-2.5667,-2.5678,-2.5697,-2.5698,-2.5827,-2.5828,0,0,-2.5457,-2.5444,-2.5499,-2.5511,-2.5496,-2.5514,-2.552,-2.5619,-2.563,-2.5663,-2.567,-2.5681,-2.5698,-2.5699,-2.5827,-2.5827,0,0,0,-2.544,-2.544,-2.5467,-2.5506,-2.5525,-2.5516,-2.5524,-2.5626,-2.5636,-2.5671,-2.5682,-2.5699,-2.57,-2.5826,-2.5827,-2.5839,0,0,0,-2.5437,-2.543,-2.5464,-2.5457,-2.5523,-2.5577,-2.5529,-2.5629,-2.564,-2.5681,-2.5699,-2.5702,-2.5826,-2.5827,-2.5838,-2.5847,0,0,0,-2.5421,-2.5428,-2.5442,-2.5456,-2.5499,-2.5575,-2.5591,-2.5632,-2.5647,-2.5697,-2.5702,-2.5825,-2.5826,-2.5836,-2.5845,-2.5876,0,0,0,-2.54,-2.5452,-2.5442,-2.5505,-2.5498,-2.5583,-2.5591,-2.5654,-2.5699,-2.5699,-2.5826,-2.5827,-2.5836,-2.5843,-2.5874,-2.5898,-2.5907,0,0,-2.5459,-2.5459,-2.5497,-2.5491,-2.5573,-2.5569,-2.5654,-2.5707,-2.5724,-2.5792,-2.5795,-2.5838,-2.5844,-2.5875,-2.5967,-2.5974,0,0,0,-2.5511,-2.5537,-2.5562,-2.5604,-2.5647,-2.5683,-2.5725,-2.5745,-2.5803,-2.5756,-2.5859,-2.5864,-2.5882,-2.5894,-2.59,-2.5916,-2.5832,-2.5832,-2.5832,-2.5573,-2.5592,-2.5655,-2.5686,-2.5727,-2.577,-2.5804,-2.5838,-2.5846,-2.587,-2.5889,-2.5942,-2.5956,-2.5961,-2.5977,-2.5905,-2.5905,-2.5905,-2.5905,-2.5659,-2.5698,-2.5708,-2.5772,-2.5792,-2.5846,-2.5889,-2.5893,-2.5945,-2.593,-2.5947,-2.5926,-2.5968,-2.5983,-2.5906,-2.5906,-2.5906,-2.5906,-2.5906,-2.57,-2.5722,-2.5746,-2.5807,-2.5853,-2.5883,-2.5933,-2.595,-2.5966,-2.5984,-2.6005,-2.6005,-2.6005,-2.5993,-2.5993,-2.5993,-2.5994,-2.5994,-2.5994,-2.5732,-2.5758,-2.5798,-2.5848,-2.5876,-2.5916,-2.596,-2.5988,-2.6024,-2.6032,-2.6033,-2.6036,-2.597,-2.5951,-2.5997,-2.5996,-2.5996,-2.5996,-2.5995,-2.5808,-2.5793,-2.5855,-2.5884,-2.5942,-2.5986,-2.6007,-2.6064,-2.609,-2.6114,-2.6115,-2.6064,-2.6065,-2.606,-2.6045,-2.6112,-2.6112,-2.6112,-2.6112,-2.5841,-2.5844,-2.591,-2.5954,-2.6,-2.6026,-2.6094,-2.6128,-2.6162,-2.6179,-2.6172,-2.6154,-2.6149,-2.6153,-2.6146,-2.6132,-2.622,-2.622,-2.622,-2.5887,-2.5896,-2.595,-2.5983,-2.603,-2.607,-2.6134,-2.6184,-2.6219,-2.6225,-2.6192,-2.6188,-2.6159,-2.6149,-2.6151,-2.614,-2.6114,0,0]},{"header":{"parameterUnit":"m.s-1","parameterCategory":1,"la1":30.2992,"la2":30.254,"lo1":-89.0895,"lo2":-89.0443,"dy":0.0025,"dx":0.0025,"nx":19,"ny":19,"refTime":"2026-05-14T03:00:00:Z","depth":0,"parameterNumber":3,"parameterNumberName":"V-component_of_WINDS"},"data":[0,0,0,3.5194,3.5196,3.5271,3.5271,3.5373,3.5374,0,0,0,0,0,0,0,0,0,0,0,3.5178,3.5179,3.5194,3.5196,3.5271,3.5271,3.5373,3.5374,0,0,0,0,0,0,0,0,0,0,0,3.5177,3.5178,3.518,3.5196,3.5271,3.5271,3.5373,3.5314,0,0,0,0,0,0,0,0,0,0,3.5239,3.5231,3.5178,3.518,3.5197,3.5271,3.5271,3.5311,3.5317,3.5343,0,3.5369,0,3.5374,3.5382,3.5382,0,0,0,3.5191,3.5225,3.524,3.518,3.5197,3.5271,3.5236,3.5314,3.5322,3.5352,3.537,3.5374,3.5375,3.5383,3.5383,3.5551,3.5551,0,0,3.5187,3.5194,3.5235,3.5246,3.5237,3.5233,3.5238,3.5319,3.5339,3.5371,3.5376,3.5377,3.5383,3.5384,3.555,3.5551,0,0,0,3.5178,3.5191,3.5204,3.5242,3.5255,3.5236,3.5241,3.5335,3.5339,3.5377,3.5378,3.5384,3.5385,3.5548,3.555,3.5607,0,0,0,3.5175,3.5186,3.5203,3.5208,3.5254,3.5296,3.5256,3.5333,3.5342,3.5378,3.5384,3.5386,3.5547,3.5549,3.5603,3.5633,0,0,0,3.5171,3.5186,3.5199,3.5208,3.5241,3.5295,3.5303,3.5335,3.5343,3.5382,3.5387,3.5547,3.5549,3.56,3.5627,3.5678,0,0,0,3.5167,3.5249,3.52,3.5291,3.524,3.5331,3.5302,3.5369,3.541,3.5385,3.5548,3.555,3.5599,3.5623,3.5674,3.5722,3.5743,0,0,3.5274,3.5262,3.5315,3.5273,3.5374,3.5319,3.5427,3.5457,3.5453,3.5518,3.5522,3.5605,3.5626,3.5677,3.5859,3.5876,0,0,0,3.5351,3.5389,3.5414,3.5454,3.5479,3.5503,3.5515,3.5526,3.558,3.5489,3.5637,3.565,3.5679,3.5702,3.5716,3.574,3.5561,3.5561,3.556,3.5512,3.5503,3.559,3.559,3.5629,3.5641,3.567,3.5686,3.5666,3.5701,3.572,3.5832,3.5858,3.5869,3.5894,3.5746,3.5746,3.5746,3.5746,3.5666,3.5718,3.5689,3.5763,3.5753,3.5813,3.5827,3.5811,3.5864,3.5817,3.5843,3.5791,3.5888,3.5909,3.575,3.575,3.5749,3.5749,3.5748,3.577,3.5793,3.5805,3.5861,3.5905,3.5901,3.5954,3.5943,3.5933,3.5958,3.5976,3.5975,3.5971,3.5968,3.5968,3.5968,3.5969,3.5969,3.5969,3.5872,3.5884,3.5931,3.5964,3.5988,3.6017,3.6028,3.605,3.6072,3.6059,3.6059,3.6034,3.5899,3.5865,3.5975,3.5974,3.5973,3.5973,3.5972,3.603,3.5992,3.6065,3.6089,3.6125,3.6168,3.6153,3.6199,3.6215,3.6241,3.6211,3.6114,3.61,3.6088,3.606,3.6214,3.6214,3.6214,3.6214,3.6117,3.6109,3.618,3.6218,3.6253,3.6247,3.6327,3.6336,3.6339,3.6348,3.6325,3.6286,3.6275,3.6268,3.6252,3.6225,3.6418,3.6418,3.6418,3.6213,3.6208,3.6279,3.6283,3.6311,3.6334,3.6408,3.6451,3.6447,3.6426,3.6355,3.6346,3.6284,3.6264,3.6241,3.6218,3.6168,0,0]}]]